Time,TemperatureF,DewpointF,PressureIn,WindDirection,WindDirectionDegrees,WindSpeedMPH,WindSpeedGustMPH,Humidity,HourlyPrecipIn,Conditions,Clouds,dailyrainin,SoftwareType,DateUTC
2013-02-17 00:00:00,31.9,31.0,0.00,SSE,153,2.2,-999.0,100,0.00,,,-99.99,,2013-02-17 09:00:00,
2013-02-17 00:05:00,32.0,32.0,0.00,SSE,158,3.2,-999.0,100,0.00,,,-99.99,,2013-02-17 09:05:00,
2013-02-17 00:10:00,31.8,31.0,0.00,South,176,0.9,-999.0,100,0.00,,,-99.99,,2013-02-17 09:10:00,
2013-02-17 00:15:00,32.0,32.0,0.00,NNW,329,0.0,-999.0,100,0.00,,,-99.99,,2013-02-17 09:15:00,
2013-02-17 00:20:00,32.0,32.0,0.00,NNE,23,1.9,-999.0,100,0.00,,,-99.99,,2013-02-17 09:20:00,
2013-02-17 00:26:00,32.1,32.0,0.00,North,0,2.9,-999.0,100,0.00,,,-99.99,,2013-02-17 09:26:00,
2013-02-17 00:31:00,31.9,31.9,0.00,NE,44,5.0,-999.0,100,0.01,,,-99.99,,2013-02-17 09:31:00,
2013-02-17 00:36:00,31.9,31.8,0.00,NE,50,6.9,-999.0,100,0.01,,,-99.99,,2013-02-17 09:36:00,
2013-02-17 00:41:00,32.0,32.0,0.00,ENE,69,5.3,-999.0,100,0.01,,,-99.99,,2013-02-17 09:41:00,
2013-02-17 00:46:00,32.0,32.0,0.00,ENE,72,4.8,-999.0,100,0.01,,,-99.99,,2013-02-17 09:46:00,
2013-02-17 00:52:00,32.0,32.0,0.00,East,101,4.5,-999.0,100,0.01,,,-99.99,,2013-02-17 09:52:00,
2013-02-17 00:57:00,32.0,32.0,0.00,East,87,6.3,-999.0,100,0.01,,,-99.99,,2013-02-17 09:57:00,
2013-02-17 00:59:00,32.0,32.0,0.00,ESE,111,4.9,-999.0,100,0.00,,,-99.99,,2013-02-17 09:59:00,
2013-02-17 01:05:00,32.1,32.0,0.00,ENE,74,7.4,-999.0,100,0.00,,,-99.99,,2013-02-17 10:05:00,
2013-02-17 01:10:00,32.2,32.2,0.00,ENE,64,7.3,-999.0,99,0.00,,,-99.99,,2013-02-17 10:10:00,
2013-02-17 01:15:00,32.2,32.2,0.00,East,81,11.3,-999.0,99,0.00,,,-99.99,,2013-02-17 10:15:00,
2013-02-17 01:20:00,32.3,32.2,0.00,East,84,13.1,-999.0,99,0.00,,,-99.99,,2013-02-17 10:20:00,
2013-02-17 01:25:00,32.4,32.2,0.00,ESE,106,9.1,-999.0,99,0.00,,,-99.99,,2013-02-17 10:25:00,
2013-02-17 01:31:00,32.6,32.3,0.00,East,98,9.3,-999.0,98,0.00,,,-99.99,,2013-02-17 10:31:00,
2013-02-17 01:36:00,32.6,32.2,0.00,ENE,73,8.4,-999.0,98,0.00,,,-99.99,,2013-02-17 10:36:00,
2013-02-17 01:41:00,32.7,32.2,0.00,ENE,75,6.4,-999.0,98,0.00,,,-99.99,,2013-02-17 10:41:00,
2013-02-17 01:46:00,32.7,32.2,0.00,ENE,68,9.3,-999.0,97,0.00,,,-99.99,,2013-02-17 10:46:00,
2013-02-17 01:51:00,32.6,32.1,0.00,ENE,69,10.6,-999.0,97,0.00,,,-99.99,,2013-02-17 10:51:00,
2013-02-17 01:57:00,32.7,32.0,0.00,NE,56,10.0,-999.0,97,0.00,,,-99.99,,2013-02-17 10:57:00,
2013-02-17 02:02:00,32.7,32.1,0.00,NE,56,9.3,-999.0,97,0.00,,,-99.99,,2013-02-17 11:02:00,
2013-02-17 02:07:00,32.7,32.0,0.00,East,79,11.0,-999.0,97,0.00,,,-99.99,,2013-02-17 11:07:00,
2013-02-17 02:12:00,32.7,32.0,0.00,ENE,78,10.2,-999.0,96,0.00,,,-99.99,,2013-02-17 11:12:00,
2013-02-17 02:17:00,32.8,32.0,0.00,ENE,77,9.3,-999.0,96,0.00,,,-99.99,,2013-02-17 11:17:00,
2013-02-17 02:23:00,33.0,32.1,0.00,East,80,11.0,-999.0,96,0.01,,,-99.99,,2013-02-17 11:23:00,
2013-02-17 02:28:00,33.0,32.1,0.00,East,79,11.7,-999.0,96,0.01,,,-99.99,,2013-02-17 11:28:00,
2013-02-17 02:33:00,33.0,32.1,0.00,ENE,71,7.5,-999.0,96,0.01,,,-99.99,,2013-02-17 11:33:00,
2013-02-17 02:38:00,33.0,32.1,0.00,ENE,67,8.1,-999.0,96,0.01,,,-99.99,,2013-02-17 11:38:00,
2013-02-17 02:43:00,33.1,32.2,0.00,ENE,69,10.6,-999.0,96,0.01,,,-99.99,,2013-02-17 11:43:00,
2013-02-17 02:49:00,33.1,32.1,0.00,East,82,11.0,-999.0,95,0.01,,,-99.99,,2013-02-17 11:49:00,
2013-02-17 02:54:00,32.9,31.9,0.00,East,83,9.4,-999.0,95,0.01,,,-99.99,,2013-02-17 11:54:00,
2013-02-17 02:59:00,32.9,31.9,0.00,East,82,8.9,-999.0,95,0.00,,,-99.99,,2013-02-17 11:59:00,
2013-02-17 03:04:00,33.0,31.9,0.00,ENE,76,11.5,-999.0,95,0.00,,,-99.99,,2013-02-17 12:04:00,
2013-02-17 03:09:00,33.0,31.9,0.00,ENE,72,13.0,-999.0,95,0.00,,,-99.99,,2013-02-17 12:09:00,
2013-02-17 03:15:00,33.0,31.9,0.00,ENE,75,10.6,-999.0,95,0.00,,,-99.99,,2013-02-17 12:15:00,
2013-02-17 03:20:00,33.0,31.8,0.00,ENE,75,14.2,-999.0,95,0.00,,,-99.99,,2013-02-17 12:20:00,
2013-02-17 03:25:00,32.8,31.7,0.00,East,80,11.4,-999.0,95,0.00,,,-99.99,,2013-02-17 12:25:00,
2013-02-17 03:30:00,33.0,31.8,0.00,ENE,77,10.7,-999.0,95,0.00,,,-99.99,,2013-02-17 12:30:00,
2013-02-17 03:35:00,33.0,31.7,0.00,ENE,68,11.5,-999.0,95,0.00,,,-99.99,,2013-02-17 12:35:00,
2013-02-17 03:41:00,32.8,31.7,0.00,ENE,65,12.4,-999.0,95,0.00,,,-99.99,,2013-02-17 12:41:00,
2013-02-17 03:46:00,33.1,31.7,0.00,East,95,8.1,-999.0,94,0.00,,,-99.99,,2013-02-17 12:46:00,
2013-02-17 03:51:00,32.7,31.5,0.00,ENE,77,8.5,-999.0,95,0.00,,,-99.99,,2013-02-17 12:51:00,
2013-02-17 03:56:00,32.6,31.5,0.00,ENE,73,9.1,-999.0,95,0.00,,,-99.99,,2013-02-17 12:56:00,
2013-02-17 04:01:00,32.1,31.2,0.00,ENE,74,9.0,-999.0,96,0.00,,,-99.99,,2013-02-17 13:01:00,
2013-02-17 04:07:00,32.4,31.4,0.00,ENE,69,9.3,-999.0,96,0.00,,,-99.99,,2013-02-17 13:07:00,
2013-02-17 04:12:00,32.2,31.2,0.00,ENE,71,12.0,-999.0,95,0.00,,,-99.99,,2013-02-17 13:12:00,
2013-02-17 04:17:00,32.0,31.1,0.00,ENE,76,9.8,-999.0,96,0.00,,,-99.99,,2013-02-17 13:17:00,
2013-02-17 04:22:00,31.6,30.8,0.00,ENE,69,10.3,-999.0,96,0.00,,,-99.99,,2013-02-17 13:22:00,
2013-02-17 04:27:00,31.7,31.0,0.00,ENE,60,8.9,-999.0,97,0.00,,,-99.99,,2013-02-17 13:27:00,
2013-02-17 04:33:00,31.9,31.0,0.00,ENE,77,9.9,-999.0,96,0.00,,,-99.99,,2013-02-17 13:33:00,
2013-02-17 04:38:00,32.1,31.1,0.00,ENE,68,11.5,-999.0,95,0.00,,,-99.99,,2013-02-17 13:38:00,
2013-02-17 04:43:00,32.1,31.0,0.00,East,84,13.4,-999.0,95,0.00,,,-99.99,,2013-02-17 13:43:00,
2013-02-17 04:48:00,31.8,30.8,0.00,ENE,69,13.1,-999.0,96,0.00,,,-99.99,,2013-02-17 13:48:00,
2013-02-17 04:53:00,31.8,30.8,0.00,ENE,69,12.1,-999.0,96,0.00,,,-99.99,,2013-02-17 13:53:00,
2013-02-17 04:59:00,31.6,30.8,0.00,ENE,67,16.4,-999.0,96,0.00,,,-99.99,,2013-02-17 13:59:00,
2013-02-17 05:04:00,31.6,30.7,0.00,ENE,69,18.3,-999.0,96,0.00,,,-99.99,,2013-02-17 14:04:00,
2013-02-17 05:09:00,31.8,30.7,0.00,ENE,68,13.5,-999.0,95,0.00,,,-99.99,,2013-02-17 14:09:00,
2013-02-17 05:14:00,31.6,30.6,0.00,ENE,69,12.3,-999.0,96,0.00,,,-99.99,,2013-02-17 14:14:00,
2013-02-17 05:19:00,31.5,30.5,0.00,ENE,70,15.4,-999.0,95,0.00,,,-99.99,,2013-02-17 14:19:00,
2013-02-17 05:25:00,31.6,30.4,0.00,ENE,66,12.9,-999.0,95,0.00,,,-99.99,,2013-02-17 14:25:00,
2013-02-17 05:30:00,31.8,30.3,0.00,ENE,67,16.1,-999.0,94,0.00,,,-99.99,,2013-02-17 14:30:00,
2013-02-17 05:35:00,31.7,30.2,0.00,ENE,74,16.7,-999.0,93,0.01,,,-99.99,,2013-02-17 14:35:00,
2013-02-17 05:40:00,31.5,30.0,0.00,East,86,15.1,-999.0,94,0.01,,,-99.99,,2013-02-17 14:40:00,
2013-02-17 05:45:00,31.3,29.8,0.00,ENE,72,14.4,-999.0,94,0.01,,,-99.99,,2013-02-17 14:45:00,
2013-02-17 05:51:00,31.3,29.7,0.00,ENE,77,17.7,-999.0,93,0.01,,,-99.99,,2013-02-17 14:51:00,
2013-02-17 05:56:00,31.5,29.7,0.00,ENE,72,18.3,-999.0,93,0.01,,,-99.99,,2013-02-17 14:56:00,
2013-02-17 06:01:00,31.5,29.7,0.00,ENE,72,18.8,-999.0,92,0.00,,,-99.99,,2013-02-17 15:01:00,
2013-02-17 06:06:00,31.6,29.6,0.00,ENE,71,21.0,-999.0,92,0.00,,,-99.99,,2013-02-17 15:06:00,
2013-02-17 06:11:00,31.6,29.5,0.00,ENE,74,16.0,-999.0,91,0.00,,,-99.99,,2013-02-17 15:11:00,
2013-02-17 06:17:00,31.6,29.2,0.00,East,85,17.7,-999.0,90,0.00,,,-99.99,,2013-02-17 15:17:00,
2013-02-17 06:22:00,31.5,29.2,0.00,ENE,77,18.7,-999.0,91,0.00,,,-99.99,,2013-02-17 15:22:00,
2013-02-17 06:27:00,31.5,29.2,0.00,East,87,15.3,-999.0,91,0.00,,,-99.99,,2013-02-17 15:27:00,
2013-02-17 06:32:00,31.3,28.9,0.00,East,86,14.9,-999.0,90,0.00,,,-99.99,,2013-02-17 15:32:00,
2013-02-17 06:37:00,31.3,29.0,0.00,East,90,14.9,-999.0,91,0.00,,,-99.99,,2013-02-17 15:37:00,
2013-02-17 06:43:00,30.9,28.9,0.00,East,99,12.9,-999.0,92,0.00,,,-99.99,,2013-02-17 15:43:00,
2013-02-17 06:48:00,31.0,29.1,0.00,East,98,13.7,-999.0,92,0.00,,,-99.99,,2013-02-17 15:48:00,
2013-02-17 06:53:00,30.9,29.1,0.00,East,79,11.8,-999.0,92,0.00,,,-99.99,,2013-02-17 15:53:00,
2013-02-17 06:58:00,30.8,29.0,0.00,East,98,11.0,-999.0,92,0.00,,,-99.99,,2013-02-17 15:58:00,
2013-02-17 07:03:00,30.9,28.9,0.00,ESE,103,8.6,-999.0,92,0.00,,,-99.99,,2013-02-17 16:03:00,
2013-02-17 07:09:00,31.1,29.0,0.00,East,94,10.3,-999.0,91,0.00,,,-99.99,,2013-02-17 16:09:00,
2013-02-17 07:14:00,31.2,29.0,0.00,East,94,11.9,-999.0,91,0.00,,,-99.99,,2013-02-17 16:14:00,
2013-02-17 07:19:00,31.2,28.8,0.00,ESE,114,14.3,-999.0,90,0.00,,,-99.99,,2013-02-17 16:19:00,
2013-02-17 07:24:00,31.0,28.6,0.00,ESE,111,15.2,-999.0,91,0.00,,,-99.99,,2013-02-17 16:24:00,
2013-02-17 07:29:00,31.0,28.8,0.00,East,93,14.8,-999.0,91,0.00,,,-99.99,,2013-02-17 16:29:00,
2013-02-17 07:35:00,30.9,28.8,0.00,East,97,17.5,-999.0,91,0.00,,,-99.99,,2013-02-17 16:35:00,
2013-02-17 07:40:00,30.7,28.6,0.00,ESE,104,16.8,-999.0,91,0.00,,,-99.99,,2013-02-17 16:40:00,
2013-02-17 07:45:00,30.5,28.6,0.00,East,93,14.9,-999.0,92,0.00,,,-99.99,,2013-02-17 16:45:00,
2013-02-17 07:50:00,30.7,28.7,0.00,East,101,14.5,-999.0,92,0.00,,,-99.99,,2013-02-17 16:50:00,
2013-02-17 07:55:00,30.7,28.8,0.00,ESE,110,12.2,-999.0,92,0.00,,,-99.99,,2013-02-17 16:55:00,
2013-02-17 08:00:00,30.5,28.4,0.00,East,83,27.6,-999.0,91,0.00,,,-99.99,,2013-02-17 17:00:00,
2013-02-17 08:05:00,30.7,28.4,0.00,East,94,18.7,-999.0,91,0.00,,,-99.99,,2013-02-17 17:05:00,
2013-02-17 08:10:00,30.7,28.5,0.00,East,80,22.0,-999.0,91,0.00,,,-99.99,,2013-02-17 17:10:00,
2013-02-17 08:15:00,30.9,28.5,0.00,East,89,15.1,-999.0,90,0.00,,,-99.99,,2013-02-17 17:15:00,
2013-02-17 08:20:00,31.1,28.6,0.00,SE,135,12.2,-999.0,90,0.00,,,-99.99,,2013-02-17 17:20:00,
2013-02-17 08:25:00,31.0,28.3,0.00,East,98,15.3,-999.0,89,0.00,,,-99.99,,2013-02-17 17:25:00,
2013-02-17 08:30:00,31.1,28.6,0.00,East,100,13.8,-999.0,90,0.00,,,-99.99,,2013-02-17 17:30:00,
2013-02-17 08:35:00,31.0,28.5,0.00,East,86,14.9,-999.0,90,0.00,,,-99.99,,2013-02-17 17:35:00,
2013-02-17 08:40:00,31.3,28.4,0.00,East,101,11.8,-999.0,89,0.00,,,-99.99,,2013-02-17 17:40:00,
2013-02-17 08:46:00,30.9,28.1,0.00,East,84,13.4,-999.0,89,0.00,,,-99.99,,2013-02-17 17:46:00,
2013-02-17 08:51:00,30.9,28.2,0.00,NE,49,10.4,-999.0,89,0.00,,,-99.99,,2013-02-17 17:51:00,
2013-02-17 08:56:00,30.9,28.3,0.00,ENE,74,13.4,-999.0,89,0.00,,,-99.99,,2013-02-17 17:56:00,
2013-02-17 09:01:00,30.8,28.0,0.00,East,87,16.1,-999.0,89,0.00,,,-99.99,,2013-02-17 18:01:00,
2013-02-17 09:06:00,30.5,28.0,0.00,East,94,11.5,-999.0,90,0.00,,,-99.99,,2013-02-17 18:06:00,
2013-02-17 09:11:00,30.6,28.0,0.00,East,91,10.7,-999.0,90,0.00,,,-99.99,,2013-02-17 18:11:00,
2013-02-17 09:16:00,30.6,28.0,0.00,ENE,67,10.8,-999.0,90,0.00,,,-99.99,,2013-02-17 18:16:00,
2013-02-17 09:21:00,30.5,27.9,0.00,East,85,14.6,-999.0,89,0.00,,,-99.99,,2013-02-17 18:21:00,
2013-02-17 09:26:00,30.2,27.9,0.00,East,87,17.5,-999.0,90,0.00,,,-99.99,,2013-02-17 18:26:00,
2013-02-17 09:31:00,30.2,27.9,0.00,ENE,78,22.1,-999.0,91,0.00,,,-99.99,,2013-02-17 18:31:00,
2013-02-17 09:36:00,30.1,27.8,0.00,ENE,71,20.0,-999.0,90,0.00,,,-99.99,,2013-02-17 18:36:00,
2013-02-17 09:41:00,30.1,28.0,0.00,East,79,8.0,-999.0,91,0.00,,,-99.99,,2013-02-17 18:41:00,
2013-02-17 09:46:00,30.1,27.7,0.00,East,80,25.5,-999.0,90,0.00,,,-99.99,,2013-02-17 18:46:00,
2013-02-17 09:51:00,30.0,27.4,0.00,East,94,19.5,-999.0,89,0.00,,,-99.99,,2013-02-17 18:51:00,
2013-02-17 09:56:00,30.0,27.7,0.00,East,80,20.5,-999.0,90,0.00,,,-99.99,,2013-02-17 18:56:00,
2013-02-17 10:01:00,30.2,27.8,0.00,East,85,12.1,-999.0,90,0.00,,,-99.99,,2013-02-17 19:01:00,
2013-02-17 10:06:00,30.4,27.8,0.00,East,98,17.2,-999.0,90,0.00,,,-99.99,,2013-02-17 19:06:00,
2013-02-17 10:11:00,30.1,27.7,0.00,East,87,13.5,-999.0,90,0.00,,,-99.99,,2013-02-17 19:11:00,
2013-02-17 10:16:00,30.0,27.5,0.00,East,91,17.0,-999.0,90,0.00,,,-99.99,,2013-02-17 19:16:00,
2013-02-17 10:21:00,29.8,27.7,0.00,SSE,153,5.1,-999.0,92,0.00,,,-99.99,,2013-02-17 19:21:00,
2013-02-17 10:26:00,29.7,27.5,0.00,ESE,102,13.6,-999.0,91,0.00,,,-99.99,,2013-02-17 19:26:00,
2013-02-17 10:31:00,29.6,27.7,0.00,East,94,15.1,-999.0,92,0.00,,,-99.99,,2013-02-17 19:31:00,
2013-02-17 10:36:00,29.6,27.8,0.00,East,85,15.6,-999.0,92,0.00,,,-99.99,,2013-02-17 19:36:00,
2013-02-17 10:41:00,29.5,27.6,0.00,East,93,12.4,-999.0,92,0.00,,,-99.99,,2013-02-17 19:41:00,
2013-02-17 10:46:00,29.6,27.7,0.00,SE,134,4.7,-999.0,92,0.00,,,-99.99,,2013-02-17 19:46:00,
2013-02-17 10:51:00,29.5,27.6,0.00,SE,138,10.1,-999.0,92,0.00,,,-99.99,,2013-02-17 19:51:00,
2013-02-17 10:56:00,29.2,27.9,0.00,East,96,9.2,-999.0,94,0.00,,,-99.99,,2013-02-17 19:56:00,
2013-02-17 11:01:00,29.1,27.9,0.00,East,93,16.3,-999.0,95,0.00,,,-99.99,,2013-02-17 20:01:00,
2013-02-17 11:06:00,29.3,28.0,0.00,East,89,13.5,-999.0,94,0.00,,,-99.99,,2013-02-17 20:06:00,
2013-02-17 11:11:00,29.1,27.7,0.00,ESE,106,11.4,-999.0,94,0.00,,,-99.99,,2013-02-17 20:11:00,
2013-02-17 11:16:00,29.1,27.9,0.00,East,81,18.9,-999.0,94,0.00,,,-99.99,,2013-02-17 20:16:00,
2013-02-17 11:21:00,29.0,27.8,0.00,East,96,8.2,-999.0,95,0.00,,,-99.99,,2013-02-17 20:21:00,
2013-02-17 11:26:00,29.0,27.8,0.00,ESE,117,8.7,-999.0,95,0.00,,,-99.99,,2013-02-17 20:26:00,
2013-02-17 11:31:00,29.0,27.7,0.00,East,86,15.3,-999.0,95,0.00,,,-99.99,,2013-02-17 20:31:00,
2013-02-17 11:36:00,29.0,27.5,0.00,ESE,118,16.6,-999.0,94,0.00,,,-99.99,,2013-02-17 20:36:00,
2013-02-17 11:41:00,29.0,27.4,0.00,ENE,68,10.8,-999.0,93,0.00,,,-99.99,,2013-02-17 20:41:00,
2013-02-17 11:46:00,28.9,27.1,0.00,East,81,12.3,-999.0,93,0.00,,,-99.99,,2013-02-17 20:46:00,
2013-02-17 11:51:00,28.5,26.9,0.00,East,96,10.7,-999.0,93,0.00,,,-99.99,,2013-02-17 20:51:00,
2013-02-17 11:56:00,28.6,26.9,0.00,ESE,106,11.8,-999.0,93,0.00,,,-99.99,,2013-02-17 20:56:00,
2013-02-17 12:01:00,28.2,26.6,0.00,East,93,9.3,-999.0,93,0.00,,,-99.99,,2013-02-17 21:01:00,
2013-02-17 12:06:00,28.1,25.9,0.00,East,101,24.1,-999.0,91,0.00,,,-99.99,,2013-02-17 21:06:00,
2013-02-17 12:11:00,27.9,26.1,0.00,SE,130,18.5,-999.0,92,0.00,,,-99.99,,2013-02-17 21:11:00,
2013-02-17 12:16:00,27.6,25.8,0.00,ESE,119,14.5,-999.0,92,0.00,,,-99.99,,2013-02-17 21:16:00,
2013-02-17 12:21:00,27.6,25.8,0.00,SE,125,16.8,-999.0,92,0.00,,,-99.99,,2013-02-17 21:21:00,
2013-02-17 12:26:00,27.1,25.6,0.00,SE,134,24.9,-999.0,94,0.00,,,-99.99,,2013-02-17 21:26:00,
2013-02-17 12:31:00,26.9,25.5,0.00,SE,129,15.8,-999.0,94,0.00,,,-99.99,,2013-02-17 21:31:00,
2013-02-17 12:36:00,26.5,25.0,0.00,SE,140,15.8,-999.0,94,0.00,,,-99.99,,2013-02-17 21:36:00,
2013-02-17 12:41:00,26.5,25.1,0.00,SE,125,9.7,-999.0,94,0.00,,,-99.99,,2013-02-17 21:41:00,
2013-02-17 12:46:00,26.2,24.7,0.00,ESE,119,12.9,-999.0,93,0.00,,,-99.99,,2013-02-17 21:46:00,
2013-02-17 12:51:00,25.9,23.8,0.00,SE,128,26.2,-999.0,91,0.00,,,-99.99,,2013-02-17 21:51:00,
2013-02-17 12:56:00,25.9,23.9,0.00,ESE,123,18.1,-999.0,92,0.00,,,-99.99,,2013-02-17 21:56:00,
2013-02-17 13:01:00,25.8,23.8,0.00,ESE,122,15.8,-999.0,92,0.00,,,-99.99,,2013-02-17 22:01:00,
2013-02-17 13:06:00,25.1,23.1,0.00,SE,143,23.6,-999.0,92,0.00,,,-99.99,,2013-02-17 22:06:00,
2013-02-17 13:11:00,25.5,23.7,0.00,ESE,119,13.0,-999.0,92,0.00,,,-99.99,,2013-02-17 22:11:00,
2013-02-17 13:16:00,25.6,23.7,0.00,SE,133,19.7,-999.0,92,0.00,,,-99.99,,2013-02-17 22:16:00,
2013-02-17 13:21:00,25.5,23.5,0.00,East,93,18.4,-999.0,92,0.00,,,-99.99,,2013-02-17 22:21:00,
2013-02-17 13:26:00,25.2,23.2,0.00,SE,146,20.0,-999.0,92,0.00,,,-99.99,,2013-02-17 22:26:00,
2013-02-17 13:31:00,24.9,23.0,0.00,SSE,159,20.6,-999.0,92,0.00,,,-99.99,,2013-02-17 22:31:00,
2013-02-17 13:36:00,25.1,22.9,0.00,SE,138,24.3,-999.0,91,0.00,,,-99.99,,2013-02-17 22:36:00,
2013-02-17 13:41:00,24.8,23.1,0.00,ESE,120,20.9,-999.0,93,0.00,,,-99.99,,2013-02-17 22:41:00,
2013-02-17 13:46:00,24.8,23.0,0.00,ESE,120,21.9,-999.0,92,0.00,,,-99.99,,2013-02-17 22:46:00,
2013-02-17 13:51:00,24.4,21.6,0.00,SE,134,27.5,-999.0,89,0.02,,,-99.99,,2013-02-17 22:51:00,
2013-02-17 13:56:00,24.6,22.3,0.00,East,97,19.5,-999.0,91,0.02,,,-99.99,,2013-02-17 22:56:00,
2013-02-17 14:01:00,24.1,21.4,0.00,SE,125,25.3,-999.0,89,0.00,,,-99.99,,2013-02-17 23:01:00,
2013-02-17 14:06:00,24.1,21.9,0.00,SE,125,18.5,-999.0,91,0.00,,,-99.99,,2013-02-17 23:06:00,
2013-02-17 14:11:00,24.4,21.6,0.00,ESE,116,23.5,-999.0,88,0.00,,,-99.99,,2013-02-17 23:11:00,
2013-02-17 14:16:00,24.3,20.8,0.00,SE,133,28.1,-999.0,86,0.00,,,-99.99,,2013-02-17 23:16:00,
2013-02-17 14:21:00,23.8,20.9,0.00,ESE,110,19.8,-999.0,88,0.00,,,-99.99,,2013-02-17 23:21:00,
2013-02-17 14:26:00,23.2,20.6,0.00,ESE,103,22.9,-999.0,89,0.00,,,-99.99,,2013-02-17 23:26:00,
2013-02-17 14:31:00,23.0,20.1,0.00,East,101,29.9,-999.0,88,0.02,,,-99.99,,2013-02-17 23:31:00,
2013-02-17 14:36:00,23.0,20.6,0.00,SE,126,28.1,-999.0,90,0.02,,,-99.99,,2013-02-17 23:36:00,
2013-02-17 14:41:00,22.9,20.3,0.00,SE,141,33.1,-999.0,90,0.02,,,-99.99,,2013-02-17 23:41:00,
2013-02-17 14:46:00,23.1,20.1,0.00,SSE,155,18.7,-999.0,88,0.02,,,-99.99,,2013-02-17 23:46:00,
2013-02-17 14:51:00,22.9,20.4,0.00,East,95,42.0,-999.0,89,0.02,,,-99.99,,2013-02-17 23:51:00,
2013-02-17 14:56:00,22.9,20.1,0.00,ENE,73,22.1,-999.0,89,0.02,,,-99.99,,2013-02-17 23:56:00,
2013-02-17 15:01:00,23.0,19.9,0.00,East,93,44.8,-999.0,87,0.00,,,-99.99,,2013-02-18 00:01:00,
2013-02-17 15:06:00,23.0,19.7,0.00,ESE,103,28.5,-999.0,86,0.24,,,-99.99,,2013-02-18 00:06:00,
2013-02-17 15:11:00,22.9,19.5,0.00,ESE,107,20.9,-999.0,86,0.24,,,-99.99,,2013-02-18 00:11:00,
2013-02-17 15:16:00,22.9,19.6,0.00,East,89,40.5,-999.0,86,0.24,,,-99.99,,2013-02-18 00:16:00,
2013-02-17 15:21:00,22.9,19.8,0.00,SSE,156,9.3,-999.0,87,0.44,,,-99.99,,2013-02-18 00:21:00,
2013-02-17 15:26:00,23.0,19.7,0.00,SE,130,34.1,-999.0,87,0.44,,,-99.99,,2013-02-18 00:26:00,
2013-02-17 15:31:00,23.0,19.7,0.00,East,90,31.0,-999.0,87,0.44,,,-99.99,,2013-02-18 00:31:00,
2013-02-17 15:37:00,23.5,19.5,0.00,ESE,122,37.3,-999.0,84,0.44,,,-99.99,,2013-02-18 00:37:00,
2013-02-17 15:42:00,23.6,19.3,0.00,East,79,22.5,-999.0,83,0.44,,,-99.99,,2013-02-18 00:42:00,
2013-02-17 15:47:00,23.8,19.4,0.00,East,89,34.4,-999.0,83,0.44,,,-99.99,,2013-02-18 00:47:00,
2013-02-17 15:52:00,24.0,19.5,0.00,ESE,109,10.4,-999.0,82,0.44,,,-99.99,,2013-02-18 00:52:00,
2013-02-17 15:57:00,23.8,19.2,0.00,ESE,113,42.0,-999.0,82,0.44,,,-99.99,,2013-02-18 00:57:00,
2013-02-17 16:02:00,24.0,19.9,0.00,ESE,106,17.8,-999.0,84,0.12,,,-99.99,,2013-02-18 01:02:00,
2013-02-17 16:07:00,23.9,20.4,0.00,SE,138,12.1,-999.0,86,0.12,,,-99.99,,2013-02-18 01:07:00,
2013-02-17 16:12:00,23.8,19.5,0.00,ESE,108,49.8,-999.0,83,0.13,,,-99.99,,2013-02-18 01:12:00,
2013-02-17 16:17:00,23.6,19.7,0.00,ESE,109,26.9,-999.0,84,0.33,,,-99.99,,2013-02-18 01:17:00,
2013-02-17 16:22:00,23.4,20.0,0.00,East,93,31.5,-999.0,86,0.34,,,-99.99,,2013-02-18 01:22:00,
2013-02-17 16:27:00,23.2,19.0,0.00,East,91,36.1,-999.0,83,0.45,,,-99.99,,2013-02-18 01:27:00,
2013-02-17 16:32:00,23.0,18.1,0.00,SE,128,20.7,-999.0,81,0.46,,,-99.99,,2013-02-18 01:32:00,
2013-02-17 16:37:00,22.9,17.9,0.00,East,91,23.9,-999.0,80,0.46,,,-99.99,,2013-02-18 01:37:00,
2013-02-17 16:42:00,23.8,18.0,0.00,SE,135,32.3,-999.0,78,0.69,,,-99.99,,2013-02-18 01:42:00,
2013-02-17 16:47:00,23.7,18.2,0.00,ESE,110,27.7,-999.0,79,0.72,,,-99.99,,2013-02-18 01:47:00,
2013-02-17 16:52:00,24.0,18.7,0.00,East,94,29.0,-999.0,79,0.83,,,-99.99,,2013-02-18 01:52:00,
2013-02-17 16:57:00,23.9,19.1,0.00,ESE,106,24.1,-999.0,81,0.83,,,-99.99,,2013-02-18 01:57:00,
2013-02-17 17:02:00,23.8,19.9,0.00,SE,128,15.1,-999.0,84,0.00,,,-99.99,,2013-02-18 02:02:00,
2013-02-17 17:07:00,24.0,20.4,0.00,East,85,22.5,-999.0,85,0.00,,,-99.99,,2013-02-18 02:07:00,
2013-02-17 17:12:00,23.4,20.5,0.00,East,90,32.9,-999.0,88,0.05,,,-99.99,,2013-02-18 02:12:00,
2013-02-17 17:17:00,23.7,20.0,0.00,East,94,40.7,-999.0,85,0.05,,,-99.99,,2013-02-18 02:17:00,
2013-02-17 17:22:00,23.6,20.4,0.00,East,87,21.7,-999.0,87,0.07,,,-99.99,,2013-02-18 02:22:00,
2013-02-17 17:27:00,23.5,20.6,0.00,East,94,30.2,-999.0,88,0.07,,,-99.99,,2013-02-18 02:27:00,
2013-02-17 17:32:00,23.9,20.7,0.00,East,90,34.3,-999.0,87,0.07,,,-99.99,,2013-02-18 02:32:00,
2013-02-17 17:37:00,23.7,20.8,0.00,SE,132,19.8,-999.0,88,0.07,,,-99.99,,2013-02-18 02:37:00,
2013-02-17 17:42:00,23.7,20.6,0.00,East,97,30.5,-999.0,87,0.07,,,-99.99,,2013-02-18 02:42:00,
2013-02-17 17:47:00,23.5,20.7,0.00,East,82,21.3,-999.0,88,0.07,,,-99.99,,2013-02-18 02:47:00,
2013-02-17 17:52:00,23.4,20.2,0.00,ESE,107,34.4,-999.0,87,0.10,,,-99.99,,2013-02-18 02:52:00,
2013-02-17 17:57:00,23.4,18.5,0.00,ESE,121,28.8,-999.0,81,0.27,,,-99.99,,2013-02-18 02:57:00,
2013-02-17 18:02:00,23.3,18.0,0.00,ESE,121,32.6,-999.0,80,0.25,,,-99.99,,2013-02-18 03:02:00,
2013-02-17 18:07:00,22.9,17.0,0.00,East,98,30.5,-999.0,77,0.35,,,-99.99,,2013-02-18 03:07:00,
2013-02-17 18:12:00,23.2,17.1,0.00,ESE,118,35.3,-999.0,77,0.44,,,-99.99,,2013-02-18 03:12:00,
2013-02-17 18:17:00,23.0,18.4,0.00,ESE,109,36.3,-999.0,82,0.44,,,-99.99,,2013-02-18 03:17:00,
2013-02-17 18:22:00,22.7,19.5,0.00,East,94,19.4,-999.0,87,0.44,,,-99.99,,2013-02-18 03:22:00,
2013-02-17 18:27:00,22.9,19.7,0.00,ESE,111,28.8,-999.0,87,0.47,,,-99.99,,2013-02-18 03:27:00,
2013-02-17 18:32:00,22.7,19.6,0.00,ESE,123,21.6,-999.0,87,0.47,,,-99.99,,2013-02-18 03:32:00,
2013-02-17 18:37:00,23.1,19.6,0.00,East,100,36.2,-999.0,86,0.47,,,-99.99,,2013-02-18 03:37:00,
2013-02-17 18:42:00,23.1,19.6,0.00,ESE,103,28.4,-999.0,86,0.47,,,-99.99,,2013-02-18 03:42:00,
2013-02-17 18:47:00,22.7,20.0,0.00,East,85,33.7,-999.0,89,0.47,,,-99.99,,2013-02-18 03:47:00,
2013-02-17 18:52:00,23.0,19.5,0.00,ENE,76,30.8,-999.0,86,0.47,,,-99.99,,2013-02-18 03:52:00,
2013-02-17 18:57:00,22.5,19.8,0.00,East,86,33.9,-999.0,89,0.47,,,-99.99,,2013-02-18 03:57:00,
2013-02-17 19:02:00,23.3,18.8,0.00,East,93,32.0,-999.0,82,0.00,,,-99.99,,2013-02-18 04:02:00,
2013-02-17 19:07:00,23.3,19.0,0.00,SE,139,21.8,-999.0,83,0.00,,,-99.99,,2013-02-18 04:07:00,
2013-02-17 19:12:00,22.9,19.4,0.00,ESE,117,22.4,-999.0,86,0.03,,,-99.99,,2013-02-18 04:12:00,
2013-02-17 19:17:00,22.6,19.3,0.00,ESE,115,23.7,-999.0,87,0.04,,,-99.99,,2013-02-18 04:17:00,
2013-02-17 19:22:00,22.1,18.7,0.00,ESE,106,26.0,-999.0,86,0.09,,,-99.99,,2013-02-18 04:22:00,
2013-02-17 19:27:00,21.9,18.2,0.00,ESE,105,16.2,-999.0,85,0.09,,,-99.99,,2013-02-18 04:27:00,
2013-02-17 19:32:00,21.5,17.3,0.00,East,83,40.1,-999.0,83,0.30,,,-99.99,,2013-02-18 04:32:00,
2013-02-17 19:37:00,21.2,16.8,0.00,ESE,103,39.2,-999.0,83,0.90,,,-99.99,,2013-02-18 04:37:00,
2013-02-17 19:42:00,20.9,16.8,0.00,East,91,43.8,-999.0,83,0.95,,,-99.99,,2013-02-18 04:42:00,
2013-02-17 19:47:00,21.2,12.3,0.00,ESE,105,37.0,-999.0,68,0.98,,,-99.99,,2013-02-18 04:47:00,
2013-02-17 19:52:00,21.5,8.8,0.00,ESE,113,21.1,-999.0,57,1.35,,,-99.99,,2013-02-18 04:52:00,
2013-02-17 19:57:00,22.5,9.5,0.00,East,83,15.3,-999.0,56,1.65,,,-99.99,,2013-02-18 04:57:00,
2013-02-17 20:00:00,22.9,8.6,0.00,ESE,114,29.9,-999.0,53,0.00,,,-99.99,,2013-02-18 05:00:00,
2013-02-17 20:03:00,22.2,8.7,0.00,ESE,106,24.9,-999.0,55,0.19,,,-99.99,,2013-02-18 05:03:00,
2013-02-17 20:08:00,21.3,9.4,0.00,ESE,111,38.6,-999.0,59,0.28,,,-99.99,,2013-02-18 05:08:00,
2013-02-17 20:13:00,21.6,11.0,0.00,East,100,15.5,-999.0,63,0.29,,,-99.99,,2013-02-18 05:13:00,
2013-02-17 20:18:00,21.7,12.0,0.00,East,81,18.4,-999.0,65,0.29,,,-99.99,,2013-02-18 05:18:00,
2013-02-17 20:23:00,21.2,12.8,0.00,ESE,102,33.9,-999.0,69,0.29,,,-99.99,,2013-02-18 05:23:00,
2013-02-17 20:28:00,20.6,14.8,0.00,East,94,34.6,-999.0,77,0.29,,,-99.99,,2013-02-18 05:28:00,
2013-02-17 20:33:00,21.2,14.0,0.00,SSE,154,19.4,-999.0,73,0.37,,,-99.99,,2013-02-18 05:33:00,
2013-02-17 20:38:00,21.4,14.2,0.00,East,91,26.0,-999.0,73,0.38,,,-99.99,,2013-02-18 05:38:00,
2013-02-17 20:43:00,21.8,14.2,0.00,East,79,25.5,-999.0,72,0.38,,,-99.99,,2013-02-18 05:43:00,
2013-02-17 20:48:00,22.2,13.0,0.00,East,99,41.5,-999.0,67,0.38,,,-99.99,,2013-02-18 05:48:00,
2013-02-17 20:50:00,22.6,13.1,0.00,East,89,31.1,-999.0,66,0.41,,,-99.99,,2013-02-18 05:50:00,
2013-02-17 20:54:00,21.9,10.0,0.00,East,89,14.6,-999.0,59,0.44,,,-99.99,,2013-02-18 05:54:00,
2013-02-17 20:59:00,22.5,5.7,0.00,ESE,118,19.1,-999.0,47,0.00,,,-99.99,,2013-02-18 05:59:00,
2013-02-17 21:04:00,21.2,7.8,0.00,SE,142,31.0,-999.0,55,0.10,,,-99.99,,2013-02-18 06:04:00,
2013-02-17 21:09:00,21.1,4.7,0.00,SE,130,54.5,-999.0,48,1.67,,,-99.99,,2013-02-18 06:09:00,
2013-02-17 21:14:00,21.6,6.7,0.00,SE,141,46.8,-999.0,52,2.66,,,-99.99,,2013-02-18 06:14:00,
2013-02-17 21:19:00,20.9,5.5,0.00,ESE,121,50.8,-999.0,50,3.77,,,-99.99,,2013-02-18 06:19:00,
2013-02-17 21:24:00,21.0,3.6,0.00,SE,140,51.2,-999.0,46,5.64,,,-99.99,,2013-02-18 06:24:00,
2013-02-17 21:29:00,21.4,6.7,0.00,SE,128,21.8,-999.0,52,8.21,,,-99.99,,2013-02-18 06:29:00,
2013-02-17 21:34:00,20.6,5.7,0.00,SE,140,42.9,-999.0,51,8.97,,,-99.99,,2013-02-18 06:34:00,
2013-02-17 21:39:00,21.4,1.8,0.00,East,89,44.6,-999.0,41,10.18,,,-99.99,,2013-02-18 06:39:00,
2013-02-17 21:44:00,20.8,4.6,0.00,SSE,165,32.3,-999.0,49,11.90,,,-99.99,,2013-02-18 06:44:00,
2013-02-17 21:49:00,20.4,4.0,0.00,SE,132,45.4,-999.0,48,13.95,,,-99.99,,2013-02-18 06:49:00,
2013-02-17 21:54:00,19.8,3.9,0.00,ESE,103,48.7,-999.0,49,16.45,,,-99.99,,2013-02-18 06:54:00,
2013-02-17 21:59:00,20.0,4.3,0.00,SSE,152,32.3,-999.0,49,0.00,,,-99.99,,2013-02-18 06:59:00,
2013-02-17 22:05:00,19.5,4.7,0.00,East,79,25.3,-999.0,51,2.35,,,-99.99,,2013-02-18 07:05:00,
2013-02-17 22:10:00,21.0,1.2,0.00,East,96,48.8,-999.0,41,4.85,,,-99.99,,2013-02-18 07:10:00,
2013-02-17 22:15:00,21.4,1.2,0.00,ESE,113,49.8,-999.0,40,8.03,,,-99.99,,2013-02-18 07:15:00,
2013-02-17 22:20:00,21.0,2.2,0.00,ESE,106,30.4,-999.0,43,8.51,,,-99.99,,2013-02-18 07:20:00,
2013-02-17 22:25:00,21.0,3.3,0.00,East,98,28.4,-999.0,45,9.00,,,-99.99,,2013-02-18 07:25:00,
2013-02-17 22:30:00,20.7,1.3,0.00,ESE,107,32.7,-999.0,42,9.32,,,-99.99,,2013-02-18 07:30:00,
2013-02-17 22:35:00,20.7,1.1,0.00,ESE,103,36.5,-999.0,41,10.09,,,-99.99,,2013-02-18 07:35:00,
2013-02-17 22:40:00,20.8,0.2,0.00,East,87,40.6,-999.0,39,10.60,,,-99.99,,2013-02-18 07:40:00,
2013-02-17 22:45:00,21.0,-0.8,0.00,ESE,108,46.1,-999.0,37,11.21,,,-99.99,,2013-02-18 07:45:00,
2013-02-17 22:50:00,21.7,1.1,0.00,East,99,30.9,-999.0,40,11.36,,,-99.99,,2013-02-18 07:50:00,
2013-02-17 22:55:00,21.6,2.5,0.00,East,99,31.1,-999.0,42,11.59,,,-99.99,,2013-02-18 07:55:00,
2013-02-17 23:00:00,21.9,3.1,0.00,East,97,41.7,-999.0,43,0.17,,,-99.99,,2013-02-18 08:00:00,
2013-02-17 23:05:00,21.5,5.3,0.00,ESE,102,38.0,-999.0,49,1.57,,,-99.99,,2013-02-18 08:05:00,
2013-02-17 23:10:00,21.4,7.7,0.00,East,92,39.7,-999.0,54,2.78,,,-99.99,,2013-02-18 08:10:00,
2013-02-17 23:15:00,21.4,7.5,0.00,ESE,105,22.7,-999.0,54,4.26,,,-99.99,,2013-02-18 08:15:00,
2013-02-17 23:20:00,21.3,7.5,0.00,ESE,116,44.8,-999.0,54,6.55,,,-99.99,,2013-02-18 08:20:00,
2013-02-17 23:25:00,21.6,6.0,0.00,SE,128,29.9,-999.0,50,8.23,,,-99.99,,2013-02-18 08:25:00,
2013-02-17 23:30:00,21.6,6.3,0.00,East,98,58.9,-999.0,51,9.42,,,-99.99,,2013-02-18 08:30:00,
2013-02-17 23:35:00,21.7,7.8,0.00,East,87,31.4,-999.0,54,10.96,,,-99.99,,2013-02-18 08:35:00,
2013-02-17 23:40:00,21.8,7.8,0.00,East,100,37.7,-999.0,54,12.23,,,-99.99,,2013-02-18 08:40:00,
2013-02-17 23:45:00,22.3,8.7,0.00,ESE,102,37.9,-999.0,55,13.26,,,-99.99,,2013-02-18 08:45:00,
2013-02-17 23:50:00,22.2,11.1,0.00,East,91,18.2,-999.0,61,13.46,,,-99.99,,2013-02-18 08:50:00,
2013-02-17 23:55:00,22.4,12.0,0.00,ESE,113,15.9,-999.0,63,13.53,,,-99.99,,2013-02-18 08:55:00,